Time,TemperatureF,DewpointF,PressureIn,WindDirection,WindDirectionDegrees,WindSpeedMPH,WindSpeedGustMPH,Humidity,HourlyPrecipIn,Conditions,Clouds,dailyrainin,SoftwareType,DateUTC
2013-06-12 00:00:00,67.0,57.7,29.69,WNW,288,0.0,0.0,72,0.00,,,0.00,Wunderground v.1.15,2013-06-12 04:00:00,
2013-06-12 00:09:00,66.9,58.0,29.69,West,276,0.0,6.0,72,0.00,,,0.00,weatherlink.com 1.10,2013-06-12 04:09:00,
2013-06-12 00:10:00,66.9,57.6,29.69,West,276,1.0,1.0,72,0.00,,,0.00,Wunderground v.1.15,2013-06-12 04:10:00,
2013-06-12 00:20:00,66.7,57.4,29.69,West,267,0.0,11.0,72,0.00,,,0.00,Wunderground v.1.15,2013-06-12 04:20:00,
2013-06-12 00:30:00,66.7,57.8,29.69,WSW,238,1.0,1.0,73,0.00,,,0.00,Wunderground v.1.15,2013-06-12 04:30:00,
2013-06-12 00:39:00,66.6,58.0,29.69,WSW,248,0.0,5.0,73,0.00,,,0.00,weatherlink.com 1.10,2013-06-12 04:39:00,
2013-06-12 00:40:00,66.6,57.7,29.68,WSW,246,0.0,11.0,73,0.00,,,0.00,Wunderground v.1.15,2013-06-12 04:40:00,
2013-06-12 00:50:00,66.4,57.9,29.68,West,279,0.0,11.0,74,0.00,,,0.00,Wunderground v.1.15,2013-06-12 04:50:00,
2013-06-12 00:55:00,66.4,58.0,29.68,West,267,0.0,6.0,74,0.00,,,0.00,weatherlink.com 1.10,2013-06-12 04:55:00,
2013-06-12 01:00:00,66.4,57.9,29.68,West,266,1.0,2.0,74,0.00,,,0.00,Wunderground v.1.15,2013-06-12 05:00:00,
2013-06-12 01:10:00,66.5,58.3,29.68,SE,142,1.0,1.0,75,0.00,,,0.00,Wunderground v.1.15,2013-06-12 05:10:00,
2013-06-12 01:20:00,66.3,58.5,29.68,NNW,330,0.0,0.0,76,0.00,,,0.00,Wunderground v.1.15,2013-06-12 05:20:00,
2013-06-12 01:24:00,66.3,59.0,29.68,WNW,295,0.0,8.0,76,0.00,,,0.00,weatherlink.com 1.10,2013-06-12 05:24:00,
2013-06-12 01:30:00,66.4,58.6,29.68,WSW,253,1.0,1.0,76,0.00,,,0.00,Wunderground v.1.15,2013-06-12 05:30:00,
2013-06-12 01:39:00,66.5,58.0,29.68,SW,234,0.0,11.0,75,0.00,,,0.00,weatherlink.com 1.10,2013-06-12 05:39:00,
2013-06-12 01:50:00,66.8,58.6,29.68,WSW,254,2.0,2.0,75,0.00,,,0.00,Wunderground v.1.15,2013-06-12 05:50:00,
2013-06-12 01:55:00,66.8,59.0,29.68,WSW,248,3.0,10.0,75,0.00,,,0.00,weatherlink.com 1.10,2013-06-12 05:55:00,
2013-06-12 02:00:00,66.9,58.7,29.68,WNW,295,2.0,2.0,75,0.00,,,0.00,Wunderground v.1.15,2013-06-12 06:00:00,
2013-06-12 02:10:00,67.0,58.4,29.68,West,269,2.0,3.0,74,0.00,,,0.00,Wunderground v.1.15,2013-06-12 06:10:00,
2013-06-12 02:20:00,66.8,58.6,29.68,WNW,282,1.0,1.0,75,0.00,,,0.00,Wunderground v.1.15,2013-06-12 06:20:00,
2013-06-12 02:26:00,66.6,58.0,29.68,NW,321,0.0,9.0,75,0.00,,,0.00,weatherlink.com 1.10,2013-06-12 06:26:00,
2013-06-12 02:40:00,66.5,58.3,29.69,WNW,287,1.0,1.0,75,0.00,,,0.00,Wunderground v.1.15,2013-06-12 06:40:00,
2013-06-12 02:50:00,66.4,58.2,29.68,SW,233,2.0,2.0,75,0.00,,,0.00,Wunderground v.1.15,2013-06-12 06:50:00,
2013-06-12 02:55:00,66.4,58.0,29.68,NW,304,0.0,9.0,75,0.00,,,0.00,weatherlink.com 1.10,2013-06-12 06:55:00,
2013-06-12 03:10:00,66.2,58.0,29.68,West,265,2.0,2.0,75,0.00,,,0.00,Wunderground v.1.15,2013-06-12 07:10:00,
2013-06-12 03:20:00,66.0,57.8,29.68,NW,313,2.0,3.0,75,0.00,,,0.00,Wunderground v.1.15,2013-06-12 07:20:00,
2013-06-12 03:26:00,65.9,58.0,29.68,WSW,245,0.0,5.0,75,0.00,,,0.00,weatherlink.com 1.10,2013-06-12 07:26:00,
2013-06-12 03:40:00,65.7,57.6,29.68,WSW,246,1.0,1.0,75,0.00,,,0.00,Wunderground v.1.15,2013-06-12 07:40:00,
2013-06-12 03:50:00,65.4,57.6,29.68,NNW,336,1.0,3.0,76,0.00,,,0.00,Wunderground v.1.15,2013-06-12 07:50:00,
2013-06-12 03:56:00,65.2,57.0,29.68,West,277,2.0,7.0,74,0.00,,,0.00,weatherlink.com 1.10,2013-06-12 07:56:00,
2013-06-12 04:10:00,64.9,55.7,29.69,NW,325,2.0,4.0,72,0.00,,,0.00,Wunderground v.1.15,2013-06-12 08:10:00,
2013-06-12 04:20:00,64.8,55.2,29.70,NW,314,3.0,3.0,71,0.00,,,0.00,Wunderground v.1.15,2013-06-12 08:20:00,
2013-06-12 04:27:00,64.7,55.0,29.70,West,263,0.0,13.0,71,0.00,,,0.00,weatherlink.com 1.10,2013-06-12 08:27:00,
2013-06-12 04:40:00,64.3,54.7,29.70,West,261,3.0,3.0,71,0.00,,,0.00,Wunderground v.1.15,2013-06-12 08:40:00,
2013-06-12 04:50:00,64.1,54.5,29.70,WNW,301,2.0,2.0,71,0.00,,,0.00,Wunderground v.1.15,2013-06-12 08:50:00,
2013-06-12 04:57:00,63.9,55.0,29.70,NNW,348,2.0,9.0,72,0.00,,,0.00,weatherlink.com 1.10,2013-06-12 08:57:00,
2013-06-12 05:10:00,63.5,54.3,29.71,WNW,302,2.0,2.0,72,0.00,,,0.00,Wunderground v.1.15,2013-06-12 09:10:00,
2013-06-12 05:20:00,63.2,54.0,29.72,WSW,255,2.0,2.0,72,0.00,,,0.00,Wunderground v.1.15,2013-06-12 09:20:00,
2013-06-12 05:27:00,63.0,54.0,29.72,NW,306,0.0,8.0,72,0.00,,,0.00,weatherlink.com 1.10,2013-06-12 09:27:00,
2013-06-12 05:40:00,62.7,53.9,29.72,West,273,2.0,2.0,73,0.00,,,0.00,Wunderground v.1.15,2013-06-12 09:40:00,
2013-06-12 05:50:00,62.5,54.1,29.72,West,275,0.0,2.0,74,0.00,,,0.00,Wunderground v.1.15,2013-06-12 09:50:00,
2013-06-12 05:58:00,62.3,54.0,29.72,West,263,3.0,12.0,75,0.00,,,0.00,weatherlink.com 1.10,2013-06-12 09:58:00,
2013-06-12 06:10:00,62.2,53.8,29.73,NNW,329,1.0,1.0,74,0.00,,,0.00,Wunderground v.1.15,2013-06-12 10:10:00,
2013-06-12 06:20:00,62.0,53.6,29.73,WSW,244,1.0,1.0,74,0.00,,,0.00,Wunderground v.1.15,2013-06-12 10:20:00,
2013-06-12 06:27:00,61.9,54.0,29.73,ENE,69,0.0,5.0,74,0.00,,,0.00,weatherlink.com 1.10,2013-06-12 10:27:00,
2013-06-12 06:40:00,61.8,53.1,29.73,WSW,249,1.0,4.0,73,0.00,,,0.00,Wunderground v.1.15,2013-06-12 10:40:00,
2013-06-12 06:50:00,61.9,53.5,29.74,West,273,1.0,1.0,74,0.00,,,0.00,Wunderground v.1.15,2013-06-12 10:50:00,
2013-06-12 06:57:00,61.9,53.0,29.74,SSW,197,8.0,11.0,73,0.00,,,0.00,weatherlink.com 1.10,2013-06-12 10:57:00,
2013-06-12 07:10:00,62.2,53.8,29.74,NW,314,1.0,1.0,74,0.00,,,0.00,Wunderground v.1.15,2013-06-12 11:10:00,
2013-06-12 07:20:00,62.4,54.0,29.74,WNW,290,2.0,2.0,74,0.00,,,0.00,Wunderground v.1.15,2013-06-12 11:20:00,
2013-06-12 07:27:00,62.6,54.0,29.74,NNE,13,0.0,14.0,73,0.00,,,0.00,weatherlink.com 1.10,2013-06-12 11:27:00,
2013-06-12 07:42:00,62.5,54.0,29.75,NNW,338,3.0,9.0,73,0.00,,,0.00,weatherlink.com 1.10,2013-06-12 11:42:00,
2013-06-12 07:57:00,62.3,54.0,29.75,West,267,0.0,6.0,75,0.00,,,0.00,weatherlink.com 1.10,2013-06-12 11:57:00,
2013-06-12 08:13:00,62.7,54.0,29.76,West,280,0.0,8.0,73,0.00,,,0.00,weatherlink.com 1.10,2013-06-12 12:13:00,
2013-06-12 08:28:00,63.1,54.0,29.76,SW,218,1.0,8.0,73,0.00,,,0.00,weatherlink.com 1.10,2013-06-12 12:28:00,
2013-06-12 08:43:00,63.3,55.0,29.77,West,270,2.0,5.0,73,0.00,,,0.00,weatherlink.com 1.10,2013-06-12 12:43:00,
2013-06-12 08:58:00,63.6,55.0,29.76,SW,219,0.0,7.0,73,0.00,,,0.00,weatherlink.com 1.10,2013-06-12 12:58:00,
2013-06-12 09:13:00,64.5,55.0,29.76,NW,306,0.0,10.0,71,0.00,,,0.00,weatherlink.com 1.10,2013-06-12 13:13:00,
2013-06-12 09:28:00,64.7,54.0,29.77,WNW,300,1.0,7.0,69,0.00,,,0.00,weatherlink.com 1.10,2013-06-12 13:28:00,
2013-06-12 09:43:00,65.4,55.0,29.76,SW,227,4.0,10.0,68,0.00,,,0.00,weatherlink.com 1.10,2013-06-12 13:43:00,
2013-06-12 09:57:00,66.3,55.0,29.76,West,279,0.0,9.0,68,0.00,,,0.00,weatherlink.com 1.10,2013-06-12 13:57:00,
2013-06-12 10:10:00,67.0,55.7,29.76,West,276,2.0,2.0,67,0.00,,,0.00,Wunderground v.1.15,2013-06-12 14:10:00,
2013-06-12 10:20:00,66.6,54.9,29.76,NNW,337,2.0,2.0,66,0.00,,,0.00,Wunderground v.1.15,2013-06-12 14:20:00,
2013-06-12 10:28:00,66.6,55.0,29.76,WNW,292,1.0,8.0,67,0.00,,,0.00,weatherlink.com 1.10,2013-06-12 14:28:00,
2013-06-12 10:40:00,67.4,55.2,29.76,NNW,333,2.0,4.0,65,0.00,,,0.00,Wunderground v.1.15,2013-06-12 14:40:00,
2013-06-12 10:50:00,68.0,56.2,29.76,NW,317,2.0,2.0,66,0.00,,,0.00,Wunderground v.1.15,2013-06-12 14:50:00,
2013-06-12 10:58:00,68.3,56.0,29.77,WNW,285,0.0,9.0,65,0.00,,,0.00,weatherlink.com 1.10,2013-06-12 14:58:00,
2013-06-12 11:10:00,68.9,54.9,29.77,North,5,1.0,1.0,61,0.00,,,0.00,Wunderground v.1.15,2013-06-12 15:10:00,
2013-06-12 11:20:00,68.8,55.7,29.78,West,273,1.0,2.0,63,0.00,,,0.00,Wunderground v.1.15,2013-06-12 15:20:00,
2013-06-12 11:28:00,68.6,56.0,29.77,NW,317,2.0,6.0,65,0.00,,,0.00,weatherlink.com 1.10,2013-06-12 15:28:00,
2013-06-12 11:40:00,69.3,55.7,29.78,NNE,18,2.0,2.0,62,0.00,,,0.00,Wunderground v.1.15,2013-06-12 15:40:00,
2013-06-12 11:50:00,69.8,56.2,29.77,NNE,20,2.0,6.0,62,0.00,,,0.00,Wunderground v.1.15,2013-06-12 15:50:00,
2013-06-12 11:58:00,69.7,56.0,29.78,WNW,294,0.0,12.0,62,0.00,,,0.00,weatherlink.com 1.10,2013-06-12 15:58:00,
2013-06-12 12:10:00,70.6,56.0,29.78,WNW,295,2.0,2.0,60,0.00,,,0.00,Wunderground v.1.15,2013-06-12 16:10:00,
2013-06-12 12:20:00,70.4,55.8,29.78,NW,319,3.0,3.0,60,0.00,,,0.00,Wunderground v.1.15,2013-06-12 16:20:00,
2013-06-12 12:29:00,70.5,56.0,29.78,WNW,301,0.0,9.0,60,0.00,,,0.00,weatherlink.com 1.10,2013-06-12 16:29:00,
2013-06-12 12:40:00,70.2,56.1,29.78,NNW,331,2.0,2.0,61,0.00,,,0.00,Wunderground v.1.15,2013-06-12 16:40:00,
2013-06-12 12:50:00,70.5,57.3,29.78,West,279,0.0,0.0,63,0.00,,,0.00,Wunderground v.1.15,2013-06-12 16:50:00,
2013-06-12 12:59:00,71.3,57.0,29.78,NW,317,0.0,10.0,60,0.00,,,0.00,weatherlink.com 1.10,2013-06-12 16:59:00,
2013-06-12 13:10:00,71.3,55.8,29.78,NNE,15,2.0,2.0,58,0.00,,,0.00,Wunderground v.1.15,2013-06-12 17:10:00,
2013-06-12 13:20:00,70.8,55.8,29.78,North,9,2.0,7.0,59,0.00,,,0.00,Wunderground v.1.15,2013-06-12 17:20:00,
2013-06-12 13:29:00,70.7,55.0,29.79,NW,311,2.0,13.0,58,0.00,,,0.00,weatherlink.com 1.10,2013-06-12 17:29:00,
2013-06-12 13:40:00,70.7,54.7,29.79,SW,218,3.0,3.0,57,0.00,,,0.00,Wunderground v.1.15,2013-06-12 17:40:00,
2013-06-12 13:50:00,71.2,55.7,29.80,NNW,342,2.0,4.0,58,0.00,,,0.00,Wunderground v.1.15,2013-06-12 17:50:00,
2013-06-12 14:00:00,71.5,55.0,29.79,WNW,293,3.0,3.0,56,0.00,,,0.00,Wunderground v.1.15,2013-06-12 18:00:00,
2013-06-12 14:10:00,71.4,55.9,29.80,West,259,2.0,3.0,58,0.00,,,0.00,Wunderground v.1.15,2013-06-12 18:10:00,
2013-06-12 14:15:00,71.7,55.0,29.79,West,274,6.0,11.0,55,0.00,,,0.00,weatherlink.com 1.10,2013-06-12 18:15:00,
2013-06-12 14:30:00,71.7,54.7,29.80,NW,325,2.0,2.0,55,0.00,,,0.00,Wunderground v.1.15,2013-06-12 18:30:00,
2013-06-12 14:40:00,72.1,55.5,29.80,WSW,258,1.0,4.0,56,0.00,,,0.00,Wunderground v.1.15,2013-06-12 18:40:00,
2013-06-12 14:50:00,72.8,55.7,29.80,SW,223,2.0,2.0,55,0.00,,,0.00,Wunderground v.1.15,2013-06-12 18:50:00,
2013-06-12 15:00:00,72.8,56.2,29.79,WSW,252,2.0,2.0,56,0.00,,,0.00,Wunderground v.1.15,2013-06-12 19:00:00,
2013-06-12 15:10:00,72.8,54.7,29.79,NNW,345,2.0,2.0,53,0.00,,,0.00,Wunderground v.1.15,2013-06-12 19:10:00,
2013-06-12 15:15:00,72.6,54.0,29.79,West,259,4.0,7.0,52,0.00,,,0.00,weatherlink.com 1.10,2013-06-12 19:15:00,
2013-06-12 15:30:00,72.3,56.0,29.79,NW,311,2.0,12.0,56,0.00,,,0.00,weatherlink.com 1.10,2013-06-12 19:30:00,
2013-06-12 15:40:00,73.3,55.6,29.78,WSW,246,1.0,1.0,54,0.00,,,0.00,Wunderground v.1.15,2013-06-12 19:40:00,
2013-06-12 15:45:00,73.6,55.0,29.78,West,276,1.0,6.0,53,0.00,,,0.00,weatherlink.com 1.10,2013-06-12 19:45:00,
2013-06-12 16:00:00,73.3,54.6,29.79,NNW,327,1.0,1.0,52,0.00,,,0.00,Wunderground v.1.15,2013-06-12 20:00:00,
2013-06-12 16:10:00,72.7,55.1,29.79,WSW,238,1.0,4.0,54,0.00,,,0.00,Wunderground v.1.15,2013-06-12 20:10:00,
2013-06-12 16:16:00,73.2,55.0,29.78,WNW,298,2.0,9.0,53,0.00,,,0.00,weatherlink.com 1.10,2013-06-12 20:16:00,
2013-06-12 16:30:00,73.7,55.5,29.78,NNW,329,1.0,1.0,53,0.00,,,0.00,Wunderground v.1.15,2013-06-12 20:30:00,
2013-06-12 16:40:00,73.8,56.1,29.78,West,278,1.0,1.0,54,0.00,,,0.00,Wunderground v.1.15,2013-06-12 20:40:00,
2013-06-12 16:46:00,74.1,56.0,29.78,WNW,289,0.0,4.0,53,0.00,,,0.00,weatherlink.com 1.10,2013-06-12 20:46:00,
2013-06-12 17:00:00,74.5,55.7,29.78,WSW,248,1.0,4.0,52,0.00,,,0.00,Wunderground v.1.15,2013-06-12 21:00:00,
2013-06-12 17:10:00,74.6,56.3,29.79,West,260,1.0,1.0,53,0.00,,,0.00,Wunderground v.1.15,2013-06-12 21:10:00,
2013-06-12 17:15:00,75.0,56.0,29.79,SSW,205,5.0,9.0,52,0.00,,,0.00,weatherlink.com 1.10,2013-06-12 21:15:00,
2013-06-12 17:30:00,74.9,55.0,29.79,West,278,1.0,1.0,50,0.00,,,0.00,Wunderground v.1.15,2013-06-12 21:30:00,
2013-06-12 17:40:00,74.4,56.2,29.79,West,267,1.0,1.0,53,0.00,,,0.00,Wunderground v.1.15,2013-06-12 21:40:00,
2013-06-12 17:47:00,74.8,56.0,29.79,West,271,0.0,2.0,52,0.00,,,0.00,weatherlink.com 1.10,2013-06-12 21:47:00,
2013-06-12 18:00:00,75.2,56.9,29.79,West,271,0.0,1.0,53,0.00,,,0.00,Wunderground v.1.15,2013-06-12 22:00:00,
2013-06-12 18:10:00,74.9,56.1,29.79,WNW,287,1.0,1.0,52,0.00,,,0.00,Wunderground v.1.15,2013-06-12 22:10:00,
2013-06-12 18:16:00,74.8,56.0,29.79,West,279,0.0,7.0,52,0.00,,,0.00,weatherlink.com 1.10,2013-06-12 22:16:00,
2013-06-12 18:30:00,73.7,55.5,29.78,West,267,0.0,0.0,53,0.00,,,0.00,Wunderground v.1.15,2013-06-12 22:30:00,
2013-06-12 18:40:00,74.0,57.3,29.79,West,267,0.0,1.0,56,0.00,,,0.00,Wunderground v.1.15,2013-06-12 22:40:00,
2013-06-12 18:46:00,74.4,58.0,29.79,West,267,3.0,3.0,56,0.00,,,0.00,weatherlink.com 1.10,2013-06-12 22:46:00,
2013-06-12 19:00:00,74.5,56.2,29.79,SW,231,0.0,0.0,53,0.00,,,0.00,Wunderground v.1.15,2013-06-12 23:00:00,
2013-06-12 19:10:00,74.5,56.8,29.79,SW,231,0.0,0.0,54,0.00,,,0.00,Wunderground v.1.15,2013-06-12 23:10:00,
2013-06-12 19:16:00,74.6,56.0,29.80,SW,231,0.0,2.0,53,0.00,,,0.00,weatherlink.com 1.10,2013-06-12 23:16:00,
2013-06-12 19:30:00,74.5,56.8,29.80,SW,231,0.0,0.0,54,0.00,,,0.00,Wunderground v.1.15,2013-06-12 23:30:00,
2013-06-12 19:40:00,73.8,57.1,29.81,SW,231,0.0,0.0,56,0.00,,,0.00,Wunderground v.1.15,2013-06-12 23:40:00,
2013-06-12 19:47:00,72.9,57.0,29.81,SW,231,0.0,0.0,57,0.00,,,0.00,weatherlink.com 1.10,2013-06-12 23:47:00,
2013-06-12 20:00:00,71.8,56.2,29.81,SW,231,0.0,0.0,58,0.00,,,0.00,Wunderground v.1.15,2013-06-13 00:00:00,
2013-06-12 20:10:00,71.0,57.3,29.82,SW,231,0.0,0.0,62,0.00,,,0.00,Wunderground v.1.15,2013-06-13 00:10:00,
2013-06-12 20:17:00,70.1,56.0,29.82,SW,231,0.0,0.0,62,0.00,,,0.00,weatherlink.com 1.10,2013-06-13 00:17:00,
2013-06-12 20:30:00,68.6,57.2,29.83,SW,231,0.0,0.0,67,0.00,,,0.00,Wunderground v.1.15,2013-06-13 00:30:00,
2013-06-12 20:40:00,67.9,56.9,29.82,SW,231,0.0,0.0,68,0.00,,,0.00,Wunderground v.1.15,2013-06-13 00:40:00,
2013-06-12 20:48:00,67.3,57.0,29.82,SW,231,0.0,0.0,70,0.00,,,0.00,weatherlink.com 1.10,2013-06-13 00:48:00,
2013-06-12 21:00:00,66.5,56.8,29.82,SW,231,0.0,0.0,71,0.00,,,0.00,Wunderground v.1.15,2013-06-13 01:00:00,
2013-06-12 21:10:00,65.7,56.8,29.82,SW,231,0.0,0.0,73,0.00,,,0.00,Wunderground v.1.15,2013-06-13 01:10:00,
2013-06-12 21:18:00,65.3,57.0,29.82,SW,231,0.0,0.0,74,0.00,,,0.00,weatherlink.com 1.10,2013-06-13 01:18:00,
2013-06-12 21:30:00,64.6,56.9,29.82,SW,231,0.0,0.0,76,0.00,,,0.00,Wunderground v.1.15,2013-06-13 01:30:00,
2013-06-12 21:40:00,63.9,56.9,29.83,SW,231,0.0,0.0,78,0.00,,,0.00,Wunderground v.1.15,2013-06-13 01:40:00,
2013-06-12 21:48:00,63.6,57.0,29.82,SW,231,0.0,0.0,80,0.00,,,0.00,weatherlink.com 1.10,2013-06-13 01:48:00,
2013-06-12 22:00:00,63.1,57.2,29.83,SW,231,0.0,0.0,81,0.00,,,0.00,Wunderground v.1.15,2013-06-13 02:00:00,
2013-06-12 22:10:00,62.7,56.8,29.82,SW,231,0.0,0.0,81,0.00,,,0.00,Wunderground v.1.15,2013-06-13 02:10:00,
2013-06-12 22:18:00,62.5,57.0,29.82,SW,231,0.0,0.0,81,0.00,,,0.00,weatherlink.com 1.10,2013-06-13 02:18:00,
2013-06-12 22:34:00,62.0,56.0,29.82,SW,231,0.0,0.0,82,0.00,,,0.00,weatherlink.com 1.10,2013-06-13 02:34:00,
2013-06-12 22:40:00,61.9,56.7,29.82,SW,231,0.0,0.0,83,0.00,,,0.00,Wunderground v.1.15,2013-06-13 02:40:00,
2013-06-12 22:48:00,61.6,57.0,29.81,SW,231,0.0,0.0,84,0.00,,,0.00,weatherlink.com 1.10,2013-06-13 02:48:00,
2013-06-12 23:00:00,61.4,56.5,29.81,SW,231,0.0,0.0,84,0.00,,,0.00,Wunderground v.1.15,2013-06-13 03:00:00,
2013-06-12 23:10:00,61.1,55.9,29.81,SW,231,0.0,0.0,83,0.00,,,0.00,Wunderground v.1.15,2013-06-13 03:10:00,
2013-06-12 23:18:00,60.9,56.0,29.81,SW,231,0.0,0.0,85,0.00,,,0.00,weatherlink.com 1.10,2013-06-13 03:18:00,
2013-06-12 23:30:00,60.7,56.8,29.81,SW,231,0.0,0.0,87,0.00,,,0.00,Wunderground v.1.15,2013-06-13 03:30:00,
2013-06-12 23:38:00,60.5,57.0,29.81,SW,231,0.0,0.0,87,0.00,,,0.00,weatherlink.com 1.10,2013-06-13 03:38:00,
2013-06-12 23:49:00,60.2,56.0,29.81,SW,231,0.0,0.0,86,0.00,,,0.00,weatherlink.com 1.10,2013-06-13 03:49:00,